Temp
23 24 24 27 32 33 32 31 32 30 29 30 31 31 29 28 29 28 25 25 24 24 23 22 21 22 22 22 22 22 22 22 22 22 21 21 21 21 21 21 21 21 21 21 21 21 21 21 21
25 24 26 30 33 32 31 32 31 32 31 31 31 31 30 27 27 27 26 24 24 24 24 23 22 22 22 22 22 22 22 21 22 21 22 21 21 21 21 21 21 21 21 21 21 21 21 21 21
25 25 31 33 33 32 32 33 32 31 31 31 30 31 29 26 27 27 25 24 24 25 24 22 22 22 23 22 22 21 22 21 21 21 21 21 21 21 21 21 21 21 21 21 21 21 21 22 22
27 30 32 34 33 33 33 33 32 31 32 32 31 28 27 27 27 26 25 25 25 25 24 22 21 22 22 22 22 22 22 21 21 21 21 21 21 21 21 21 21 21 21 21 21 22 22 22 22
28 32 34 33 33 33 33 33 32 32 32 31 31 28 26 26 25 25 25 25 25 25 24 23 21 22 22 22 21 21 22 21 21 21 21 21 21 21 21 21 21 22 22 22 22 22 23 22 22
31 32 33 33 32 32 32 33 33 32 31 30 30 28 26 25 26 25 25 25 26 25 25 23 22 22 22 22 22 22 21 21 21 21 22 21 21 21 21 21 21 23 23 23 23 23 23 23 23
32 34 34 34 32 32 32 33 32 32 31 31 31 28 26 27 26 26 25 26 26 25 25 24 23 22 22 23 22 22 21 21 22 21 21 21 21 22 23 23 23 24 24 23 24 24 24 24 24
31 34 34 34 33 31 32 32 32 33 30 31 31 28 27 27 26 26 25 26 26 25 25 25 24 24 22 23 22 22 22 22 22 22 22 23 24 23 24 24 24 24 24 24 24 24 24 24 25
31 34 33 33 34 32 32 32 32 32 31 31 30 30 29 26 26 26 26 26 25 25 25 25 24 22 23 25 23 23 23 24 24 24 24 25 26 26 26 25 24 24 25 25 25 25 25 25 25
33 35 34 34 34 33 33 33 32 31 31 30 30 29 27 26 27 27 27 27 26 26 25 25 24 24 25 25 24 24 24 25 24 23 24 26 25 25 26 25 25 25 26 26 26 26 26 27 29
33 34 34 34 35 34 33 33 33 32 31 31 29 28 27 27 27 28 28 28 27 26 26 25 25 24 26 25 25 26 26 25 24 23 24 24 26 25 27 27 27 27 27 28 28 28 29 28 29
34 34 35 34 34 34 33 33 33 32 33 32 30 29 28 28 28 28 28 27 26 26 26 25 25 23 25 25 26 25 26 25 26 25 24 25 27 26 27 27 27 27 27 27 28 28 28 28 28
34 35 35 35 34 34 33 32 31 30 32 32 30 29 29 29 28 28 27 27 25 26 26 25 23 23 24 23 24 25 26 26 26 26 24 26 26 26 27 26 27 27 27 28 28 28 28 28 29
34 34 34 34 33 33 32 32 32 30 32 31 30 30 30 29 28 28 27 27 26 25 26 23 23 23 24 24 23 24 25 25 26 26 26 25 26 25 27 27 28 28 27 27 27 27 28 29 30
35 34 34 33 33 32 33 31 31 31 31 30 30 30 30 29 29 28 27 27 26 26 26 22 25 24 24 23 23 24 25 27 26 26 25 25 25 25 25 27 28 27 27 27 28 28 29 29 30
35 35 34 33 33 32 33 31 31 31 31 31 31 30 30 30 29 29 28 27 26 26 25 25 26 25 24 24 24 25 25 25 26 26 26 25 25 25 26 27 28 26 27 28 28 28 29 29 30
34 35 34 33 34 33 34 32 31 32 32 31 31 31 30 30 30 29 28 27 27 26 25 25 25 26 25 24 24 24 24 25 26 27 27 26 25 26 25 27 27 25 27 28 28 28 28 29 29
35 35 35 34 34 34 33 33 32 32 33 32 32 31 31 31 31 29 29 28 27 26 25 24 24 25 24 24 24 25 25 26 26 27 27 26 26 25 25 27 26 25 27 28 27 26 27 28 29
35 35 35 35 35 34 34 33 32 32 33 32 32 31 31 32 31 30 29 28 28 27 26 25 25 24 24 24 25 26 27 27 27 27 26 25 26 25 25 26 27 26 26 26 25 27 28 28 29
36 36 36 36 35 35 35 34 33 33 33 33 33 32 32 32 32 31 29 29 28 28 26 26 25 24 24 25 25 26 26 27 27 27 26 25 25 25 25 25 26 26 26 26 26 25 26 28 29
37 36 36 36 35 36 35 34 33 33 33 33 33 33 33 33 32 32 30 29 29 28 27 26 25 25 24 25 25 25 24 25 26 27 27 27 26 25 25 25 25 25 25 27 26 26 26 27 28
36 36 37 36 35 34 36 33 34 34 32 32 32 33 33 33 33 33 31 30 29 29 28 27 26 25 25 24 25 25 25 25 27 27 27 26 25 25 25 25 25 25 26 26 26 27 26 26 27
35 36 36 36 36 36 35 36 33 34 33 33 33 29 32 33 33 33 32 31 30 30 29 28 26 25 25 25 24 25 25 26 27 27 26 25 25 25 25 25 25 25 25 26 25 25 25 26 26
36 36 36 36 37 35 36 36 35 34 32 32 33 33 29 32 32 32 32 31 29 28 28 28 26 25 24 23 22 24 25 24 24 26 25 25 27 27 26 25 25 24 25 25 25 25 25 25 26
36 36 35 34 35 35 34 35 33 31 28 30 31 33 33 32 31 30 30 30 27 27 24 24 26 23 23 22 23 23 23 23 23 23 23 25 26 27 27 25 24 24 25 24 24 25 25 25 25
36 37 36 33 34 36 33 34 32 29 28 29 30 31 33 32 32 31 30 29 28 27 26 23 23 22 21 21 22 22 22 23 23 23 22 22 22 23 24 24 24 24 24 24 24 24 25 25 25
34 34 36 35 35 34 36 32 30 29 28 28 30 32 31 32 30 29 28 26 24 23 22 20 20 20 19 20 21 21 21 22 22 22 22 23 23 24 24 24 24 23 24 23 24 25 25 25 25
34 35 34 35 32 32 35 32 33 30 28 27 26 25 26 27 25 26 24 22 23 21 21 21 21 20 19 20 22 22 22 21 21 22 22 22 22 22 22 23 23 23 23 22 23 24 25 25 25
33 34 34 35 34 33 34 34 30 28 27 26 25 24 23 19 19 21 21 20 20 18 18 21 21 20 20 19 19 20 21 21 22 22 22 22 22 21 22 22 22 23 23 23 21 22 23 23 24
33 34 35 34 33 33 33 32 29 28 27 23 23 21 20 18 18 18 18 18 18 18 18 17 16 19 17 17 18 19 20 20 21 21 21 21 21 21 21 21 22 22 23 23 22 21 21 22 23
Height
777 779 776 772 775 765 785 793 779 795 799 789 789 789 803 804 808 825 828 831 834 836 838 839 839 839 840 841 842 843 843 844 844 844 844 846 845 844 845 845 845 845 846 846 847 847 847 847 848
777 778 775 764 771 788 798 781 791 786 788 787 791 794 799 817 812 819 827 833 835 837 839 841 841 842 843 844 844 846 847 847 846 847 846 847 847 847 847 847 847 848 848 849 850 849 849 849 849
778 777 766 762 770 788 795 779 784 786 787 788 797 794 803 820 819 821 829 833 836 838 840 843 843 845 846 847 848 849 849 849 849 849 849 849 848 848 849 849 849 850 850 851 851 851 851 850 850
775 770 761 768 786 780 781 779 783 789 788 788 793 810 815 819 823 826 832 835 837 840 842 844 845 847 847 849 850 850 850 851 851 851 851 850 850 850 850 851 851 852 852 853 853 853 852 852 852
773 763 769 777 784 781 777 778 781 787 790 794 794 813 821 824 827 831 834 837 839 841 844 846 847 849 850 852 852 853 852 853 853 853 853 852 852 851 852 853 853 853 854 854 855 854 854 853 853
770 764 778 787 791 784 781 779 781 786 791 797 802 812 823 827 829 833 835 838 839 842 845 848 849 850 852 853 855 855 854 855 855 854 855 855 854 854 854 855 855 855 856 856 856 856 855 855 854
772 764 779 779 791 791 788 780 785 789 794 798 797 812 821 825 830 833 836 838 841 844 846 849 852 852 854 855 856 857 857 857 856 856 857 857 856 856 857 857 857 858 858 858 858 857 857 856 855
770 767 779 777 785 798 786 785 784 786 799 797 799 816 822 823 829 833 837 840 842 845 847 850 853 854 852 857 858 859 859 858 858 859 859 859 858 859 859 859 860 859 859 859 859 858 858 857 856
770 773 787 785 782 791 783 791 789 789 797 797 801 804 814 825 830 833 837 841 844 846 848 850 854 854 858 858 860 860 860 861 861 861 861 860 862 861 862 861 861 860 860 860 859 859 859 858 857
771 774 781 772 773 782 783 785 791 795 801 805 805 812 821 826 829 831 834 837 841 845 849 851 854 856 858 859 862 862 863 863 864 864 864 863 863 863 863 863 862 862 861 860 860 860 859 857 858
770 777 773 773 769 773 782 786 785 795 804 803 810 815 822 827 829 831 833 835 839 844 849 852 854 857 858 860 861 862 863 864 865 865 865 865 865 865 864 864 865 864 863 862 862 862 861 862 860
774 769 767 772 771 777 786 786 791 793 794 799 809 816 822 826 828 830 833 836 840 843 848 853 854 858 860 861 862 863 864 865 866 867 867 867 867 867 866 866 866 866 865 865 865 863 864 862 861
774 769 767 769 775 778 784 793 797 802 795 802 811 818 821 824 828 831 834 837 842 843 847 851 854 858 860 862 863 864 865 866 867 868 869 869 868 868 868 868 867 867 867 866 866 865 864 862 861
768 770 774 776 780 783 792 795 792 803 797 806 813 817 821 824 828 832 835 838 841 844 847 851 856 859 861 862 864 866 867 867 868 869 870 870 870 870 869 869 868 868 868 868 867 866 864 862 861
766 779 780 783 785 790 786 803 804 800 802 810 813 817 820 824 829 832 835 839 841 844 847 852 855 858 861 862 864 866 866 866 868 869 869 871 871 871 870 870 869 869 869 868 867 866 864 863 861
772 772 790 787 784 788 786 813 804 800 804 811 813 817 821 825 828 832 835 839 843 845 848 852 854 857 860 863 865 865 866 867 867 868 870 871 871 871 871 870 870 870 869 868 867 866 865 864 862
777 788 787 795 778 787 788 807 801 799 802 810 814 817 820 823 827 831 834 837 841 845 849 852 855 857 860 861 863 865 866 867 867 868 868 870 871 871 871 870 870 870 869 868 868 867 866 864 863
785 783 782 786 783 783 792 797 799 798 800 807 810 814 818 821 824 829 833 836 840 845 849 852 855 858 860 862 863 864 864 865 866 867 867 869 870 870 870 870 870 870 869 868 868 868 866 864 863
774 781 784 778 773 783 788 793 799 798 797 805 809 813 816 817 821 827 832 836 839 843 847 851 854 856 859 861 862 863 863 863 864 865 867 868 869 869 869 869 868 868 868 868 869 867 865 863 862
772 779 779 775 772 775 783 792 793 797 798 799 804 809 812 814 817 824 830 834 838 841 845 848 851 854 857 859 860 862 862 862 862 863 865 866 867 868 868 868 867 867 867 867 867 867 866 862 860
769 775 775 775 777 771 779 791 797 794 795 797 799 803 807 810 814 821 827 831 834 838 842 845 849 852 854 857 859 860 862 862 861 861 862 862 864 865 865 865 865 865 865 863 864 864 864 862 861
776 768 768 775 782 796 773 815 792 791 800 801 801 803 805 807 810 815 822 827 830 833 838 841 845 849 852 855 856 858 859 860 856 858 859 861 861 861 861 861 862 862 861 861 861 860 861 861 858
778 767 767 770 775 780 786 792 799 790 799 799 798 808 803 804 807 812 816 821 826 830 834 838 843 846 849 851 852 855 855 856 856 857 859 859 858 858 858 858 858 858 858 857 857 857 857 856 856
765 773 775 774 775 801 785 793 795 793 801 799 790 795 806 805 807 811 814 821 826 830 833 836 841 846 848 851 851 853 854 856 857 857 857 857 854 853 854 854 854 854 854 854 853 853 852 852 850
769 775 798 808 803 804 787 798 798 802 812 803 798 791 793 801 808 814 818 819 826 829 834 837 842 846 847 849 851 851 852 854 855 854 854 853 851 850 849 850 850 849 849 848 848 848 847 847 846
773 768 788 816 806 790 792 803 797 804 805 799 795 791 788 798 804 811 815 819 824 830 834 839 841 845 847 847 848 850 851 852 852 851 851 850 849 849 848 847 845 844 844 843 842 842 841 840 840
778 787 767 784 784 800 781 795 801 801 805 803 793 786 794 798 806 813 820 825 830 836 840 843 842 841 844 845 845 854 850 851 852 849 850 850 848 847 846 844 841 839 838 837 836 835 834 834 834
771 765 790 783 817 819 788 799 794 804 810 810 810 813 812 812 819 823 828 834 837 842 843 847 846 848 850 854 858 856 854 852 850 846 848 849 847 846 844 841 838 836 834 832 831 829 827 827 826
782 779 777 774 785 801 800 788 793 806 808 812 817 820 822 831 833 834 837 842 844 847 844 850 852 850 853 856 859 857 854 851 850 848 847 846 844 841 839 837 835 832 830 828 826 824 823 821 819
769 769 769 786 797 787 793 797 797 803 807 821 826 831 835 838 841 844 845 847 849 847 847 853 854 853 852 857 857 854 853 851 849 848 846 844 841 838 836 833 831 828 825 823 821 819 816 814 812
Wind_Speed
5 4 2 4 3 4 15 16 16 18 11 4 7 4 12 12 10 11 20 15 17 14 13 12 13 14 15 13 13 15 15 16 15 15 16 15 14 15 15 14 14 15 16 16 16 15 15 15 14
3 2 4 3 4 11 10 14 15 11 12 13 10 10 6 8 10 17 17 18 15 15 14 12 14 15 14 14 14 13 14 14 14 15 15 15 14 14 14 14 15 15 15 15 15 14 13 11 11
4 2 4 3 8 12 10 13 11 13 14 10 6 10 6 6 17 14 22 19 16 15 14 13 14 14 14 12 12 13 13 14 15 15 14 14 14 14 13 13 13 14 14 13 13 12 12 11 9
3 5 4 6 16 11 13 13 14 14 10 5 12 10 9 11 10 14 21 19 17 15 14 13 14 13 12 14 12 13 14 15 15 14 13 12 13 14 13 12 12 14 13 12 12 12 11 11 9
3 4 5 14 17 14 12 11 9 11 9 9 4 10 12 10 14 22 20 18 16 15 14 13 13 12 11 12 12 13 14 15 14 14 13 15 17 14 13 13 13 13 13 12 11 11 11 11 11
3 4 7 13 15 12 10 9 8 8 10 11 15 19 9 13 22 20 18 16 15 15 13 12 12 12 11 11 11 13 14 13 13 14 14 15 16 15 14 14 14 13 12 11 11 11 11 13 11
3 1 9 15 14 12 9 6 7 10 10 10 12 17 13 18 21 20 18 16 15 13 13 12 11 9 10 11 10 10 12 12 12 13 12 14 15 18 18 17 15 13 11 9 9 10 11 13 13
2 2 10 10 11 13 9 8 6 10 11 12 17 8 17 21 21 20 17 15 14 13 12 12 11 9 11 10 8 9 10 10 11 10 12 16 18 18 17 14 12 10 8 7 7 7 8 10 11
1 4 9 10 10 10 11 12 7 8 13 7 3 17 22 23 20 20 18 15 14 12 12 12 11 9 8 9 7 7 8 9 11 11 12 13 12 12 11 10 8 5 4 5 5 6 7 7 10
3 8 10 6 8 12 10 10 12 12 12 13 15 21 23 22 20 19 18 17 16 15 13 12 12 12 9 8 7 7 8 8 7 6 8 10 10 10 9 10 11 10 7 8 8 7 7 7 5
1 7 4 4 8 13 13 11 9 13 9 13 21 22 21 20 18 16 15 15 16 16 14 13 13 9 9 8 7 7 7 7 5 6 7 8 8 8 9 10 10 9 11 10 9 9 7 7 5
5 4 4 8 12 12 11 10 12 4 12 14 19 20 19 16 15 14 12 12 12 17 16 14 11 10 7 6 6 8 8 7 6 5 5 6 6 8 9 9 9 10 9 9 9 9 8 7 6
8 7 11 11 13 13 12 11 10 6 10 18 20 18 16 14 13 12 12 12 14 16 17 15 12 9 7 5 6 6 7 6 5 4 3 4 5 6 6 8 9 9 9 9 10 10 10 8 5
7 10 14 12 13 12 13 13 5 9 17 20 18 16 14 14 14 14 12 12 16 16 18 15 15 11 7 5 5 5 5 4 4 3 2 3 4 5 5 5 6 7 9 9 9 10 10 8 6
7 15 12 11 11 9 13 8 13 15 19 19 17 14 13 13 13 12 12 12 13 16 16 14 16 12 9 7 6 5 4 5 4 4 2 1 3 5 4 4 5 7 7 8 8 9 8 8 7
5 8 8 9 10 9 9 12 14 17 19 18 16 13 12 11 13 11 11 11 12 14 16 17 15 13 11 7 5 4 4 3 5 6 5 3 3 4 5 5 5 8 7 7 7 8 9 8 8
4 7 7 8 10 8 8 10 15 16 16 16 14 13 12 12 11 11 11 11 13 13 15 16 15 14 12 10 8 6 5 4 4 6 7 5 4 4 5 7 7 9 8 7 7 7 7 8 9
6 5 5 6 9 7 7 11 15 15 15 16 15 14 13 12 13 13 11 10 12 13 14 16 15 12 11 9 9 8 7 6 6 6 7 7 5 4 5 7 8 9 9 8 7 9 9 9 9
1 1 1 4 7 9 8 11 14 16 14 15 15 14 14 13 14 14 12 12 12 13 15 16 17 16 13 12 10 10 9 8 8 8 8 7 7 7 7 7 7 8 7 7 9 10 11 11 10
9 7 5 5 9 10 10 9 13 16 14 14 15 15 15 15 13 14 14 14 14 14 15 17 18 18 17 13 11 9 6 6 8 6 6 8 9 10 10 9 8 7 8 8 8 8 11 13 8
10 9 4 1 10 4 8 10 12 14 14 12 12 14 15 15 15 13 14 15 16 17 18 18 18 18 18 16 12 11 9 9 9 8 8 8 9 10 11 11 11 10 9 10 8 9 9 12 12
7 1 6 8 12 5 10 4 12 14 14 14 12 12 13 14 12 13 14 15 17 18 18 19 19 18 15 15 16 12 11 11 9 6 8 9 11 13 14 13 12 12 12 12 11 11 10 10 13
6 2 4 6 8 4 9 8 9 8 12 15 14 9 11 12 13 14 16 14 13 13 15 15 16 16 16 16 18 15 16 13 10 9 9 11 12 12 12 14 14 14 15 15 14 13 12 12 12
11 9 6 4 7 9 7 7 11 7 5 3 8 16 14 13 7 5 3 6 7 10 12 11 12 11 11 12 15 16 18 14 14 14 14 16 14 12 11 13 14 16 18 19 18 18 17 16 16
9 11 8 9 9 10 6 6 11 7 3 4 7 11 16 13 10 8 8 6 7 10 7 5 4 4 4 4 7 12 13 13 13 15 15 16 16 16 14 13 15 17 18 19 19 20 20 19 19
13 12 11 11 10 8 5 6 7 5 3 3 8 14 15 15 9 7 6 9 9 7 7 8 8 4 0 2 8 8 4 7 9 11 13 13 14 16 17 18 19 19 19 20 20 22 23 22 21
7 9 6 12 6 11 11 7 5 5 6 4 5 12 12 14 11 11 15 17 18 19 18 18 19 18 19 20 14 4 4 5 8 8 8 9 10 11 14 15 16 18 19 19 20 22 23 24 24
6 7 7 8 14 13 8 5 2 7 5 9 10 10 9 11 13 13 19 18 18 18 19 18 18 18 15 5 5 7 6 5 7 9 8 10 10 12 12 13 14 15 16 18 19 22 24 24 25
6 8 5 6 4 10 9 3 5 5 5 10 9 10 11 15 13 12 17 16 16 15 19 15 13 14 12 9 9 9 9 10 11 11 12 14 16 16 16 16 16 16 15 16 19 19 22 26 27
4 5 8 8 11 8 9 2 6 8 11 11 10 11 13 13 12 14 15 13 12 13 13 11 12 11 11 9 13 13 13 14 14 15 17 18 20 20 20 20 20 19 17 16 16 19 24 26 26
Wind_Direction
149 176 245 240 181 93 87 94 115 108 106 109 128 66 83 24 6 93 136 131 132 124 118 107 109 107 105 104 96 106 98 96 93 94 86 87 90 90 90 89 90 90 88 90 90 90 87 89 86
154 157 233 253 149 101 94 127 121 128 115 127 101 127 84 71 89 122 129 137 132 126 123 114 108 105 102 98 98 100 94 89 88 82 84 93 86 85 85 85 90 92 93 91 89 88 87 80 75
174 229 270 343 68 88 109 121 112 113 133 138 105 60 50 85 124 124 135 139 133 129 124 121 108 103 110 101 102 96 94 90 86 84 81 84 85 85 84 86 88 93 92 91 88 83 74 67 67
243 201 220 95 90 67 109 114 121 136 127 108 114 86 92 120 118 132 141 140 135 129 124 118 108 111 106 109 99 98 95 91 87 85 84 78 90 88 85 87 91 96 95 91 86 75 62 53 54
266 243 130 92 81 90 96 111 138 141 124 130 143 115 109 111 126 137 141 143 138 132 127 120 112 105 104 104 98 96 90 87 87 83 81 77 82 85 86 89 94 99 97 91 82 67 56 56 66
216 267 121 96 98 105 105 113 133 133 121 113 113 117 105 131 141 144 144 146 139 130 128 123 113 107 111 104 96 92 91 90 87 85 80 78 80 83 85 90 95 98 94 86 73 60 56 57 69
335 336 89 101 109 112 104 103 122 120 129 130 134 121 128 145 147 147 149 148 142 135 133 130 119 106 105 114 98 93 92 93 90 87 83 83 82 82 81 86 88 88 85 77 65 54 57 55 58
329 228 118 117 102 111 121 94 118 119 94 113 138 143 151 144 151 151 152 150 149 144 138 135 128 123 113 111 105 100 95 94 93 90 88 79 73 69 70 66 74 74 70 60 52 49 48 44 47
278 110 99 105 106 122 126 119 89 105 131 108 102 136 134 146 150 153 156 155 157 154 148 145 139 140 132 123 103 84 92 92 83 75 79 76 80 74 72 58 58 57 48 42 37 33 31 34 34
276 91 80 90 96 126 131 121 124 141 126 119 110 119 137 149 157 157 166 168 170 166 161 155 150 153 145 131 127 120 117 119 108 87 73 80 70 64 64 50 55 51 55 48 35 24 35 41 66
32 74 71 100 124 134 131 119 128 135 127 144 144 143 149 155 161 162 169 169 173 173 169 166 157 156 150 137 135 133 134 128 113 84 70 63 63 50 61 63 62 60 56 63 57 44 50 54 39
145 96 118 118 137 130 127 122 134 49 124 136 141 146 152 162 165 165 167 166 176 176 175 172 164 160 150 142 138 139 144 140 134 109 69 58 67 54 58 59 55 53 55 45 38 32 21 25 34
73 90 111 120 134 125 128 122 113 93 142 134 137 148 155 161 162 162 158 159 168 174 171 171 173 163 158 142 131 130 148 149 141 121 84 67 58 50 54 52 51 45 42 35 26 20 16 19 40
114 109 106 123 122 130 128 134 119 113 139 136 145 149 152 157 163 159 163 160 165 174 172 178 175 175 166 152 149 143 148 167 162 156 117 56 50 34 35 39 37 35 28 22 21 17 18 26 35
128 122 116 131 140 146 138 132 103 134 140 144 152 148 146 151 155 165 165 161 172 173 173 176 178 179 177 172 167 163 165 169 200 196 191 5 9 8 5 4 6 9 7 8 9 8 13 15 11
151 199 158 150 163 161 236 119 136 151 150 153 153 150 154 155 163 165 163 165 164 170 176 178 182 181 182 183 187 192 198 201 207 215 224 246 310 338 330 323 335 345 339 342 348 355 354 3 0
205 121 112 148 195 153 225 114 147 162 163 156 162 159 164 161 172 168 166 165 164 171 175 183 188 187 187 190 195 208 227 231 225 225 228 233 270 296 322 307 317 330 317 318 328 336 342 343 343
103 142 124 129 174 185 177 110 155 169 170 168 170 167 169 173 178 176 178 169 165 174 180 185 191 194 196 201 212 212 218 230 246 242 241 241 250 281 300 296 315 317 299 299 322 328 325 317 325
306 293 120 134 146 188 170 140 162 175 176 171 178 177 181 181 172 172 183 181 177 179 186 194 197 200 200 207 214 225 237 241 246 258 251 255 264 271 278 286 300 315 290 300 307 311 305 311 321
251 253 209 124 156 226 152 153 161 177 183 174 179 180 186 187 176 179 184 192 194 189 195 201 206 207 208 213 220 232 247 260 267 268 263 258 267 271 270 275 290 301 303 286 293 304 308 300 316
228 244 173 133 158 204 163 151 160 172 184 175 188 183 190 188 184 182 191 200 200 202 203 206 210 214 217 222 225 232 244 268 254 248 253 256 269 271 269 268 270 281 284 286 282 283 288 297 305
176 280 223 158 191 175 217 114 170 167 184 185 188 186 195 196 195 182 199 207 213 212 209 212 212 213 215 217 229 235 244 252 291 276 272 283 280 273 266 263 263 266 272 277 274 271 267 280 290
112 165 156 193 240 256 179 272 128 166 184 186 190 187 205 202 196 197 202 211 220 215 215 214 217 218 216 220 225 233 241 256 257 267 280 279 281 278 270 265 266 266 268 269 264 265 255 259 272
147 150 150 199 262 239 130 259 134 115 94 180 203 185 191 208 197 235 215 219 219 216 218 209 210 222 223 233 242 253 253 261 274 279 293 293 286 280 272 268 265 266 267 266 267 267 260 256 260
219 206 228 219 215 243 109 224 75 100 88 280 247 221 192 177 184 177 198 190 176 176 182 208 193 203 212 263 273 269 272 271 276 285 281 281 285 281 279 278 275 274 271 269 264 260 258 259 261
213 247 251 258 256 261 119 252 103 94 78 286 242 222 196 185 168 158 119 109 107 99 100 104 94 90 40 11 5 312 306 297 293 300 299 298 288 288 298 291 283 277 276 267 265 262 257 254 256
173 225 321 282 239 273 269 118 183 119 78 24 123 143 161 168 143 115 101 93 87 82 84 82 91 77 50 32 26 338 11 340 348 349 336 322 318 318 315 308 297 288 279 274 263 258 260 258 256
290 127 214 219 267 259 244 258 212 158 120 108 90 96 111 123 104 99 91 90 88 85 80 72 76 73 68 64 7 12 12 352 340 356 330 312 308 308 310 315 311 306 295 280 274 266 260 258 257
169 203 235 290 290 287 264 185 82 124 133 121 120 130 101 74 73 93 88 81 81 69 75 61 65 66 54 30 357 355 339 333 323 314 306 303 303 305 304 305 304 303 301 292 278 270 271 272 267
293 307 231 235 203 237 292 43 125 128 127 114 101 97 87 84 85 87 86 82 68 61 55 46 26 35 38 7 350 346 330 323 314 305 300 299 297 295 293 292 291 292 292 290 285 281 275 270 270